Regional Weather Roundup
Issued by NWS Mt. Holly, NJ

Home | Current Version | Previous Version | Text Only | Print | Product List | Glossary On
Versions: 1 2 3 4 5 6 7 8 9 10 11 12 13 14 15 16 17 18 19 20 21 22 23 24 25 26 27 28 29 30 31 32 33 34 35 36 37 38 39 40 41 42 43 44 45 46 47 48 49 50
000
ASUS41 KPHI 010410
RWRPHI

REGIONAL WEATHER ROUNDUP
NATIONAL WEATHER SERVICE MOUNT HOLLY NJ
1100 PM EST SAT JAN 31 2015

NOTE:  "FAIR" INDICATES FEW OR NO CLOUDS BELOW 12,000 FEET WITH NO
SIGNIFICANT WEATHER AND/OR OBSTRUCTIONS TO VISIBILITY.

 * = STATION DOES NOT REPORT PRECIPITATION (E.G. RAIN, SNOW, ETC.)
        OR FOG.

NJZ015>026-010500-
SOUTHERN NEW JERSEY

CITY           SKY/WX    TMP DP  RH WIND       PRES   REMARKS
POMONA         CLEAR     23   8  52 W8        30.25S WCI  14
RIO GRANDE*    CLEAR     28  10  47 W8        30.27F WCI  20
MILLVILLE      CLEAR     16  10  77 W3        30.26S
WRIGHTSTOWN    CLEAR     22   8  54 W5        30.21S WCI  16
MOUNT HOLLY    CLEAR     24   8  50 W5        30.24S WCI  18
TRENTON        CLEAR     20   6  55 W7        30.22S WCI  11

$$
NJZ001>014-010500-
NORTHERN NEW JERSEY

CITY           SKY/WX    TMP DP  RH WIND       PRES   REMARKS
SUSSEX         MOCLDY     7   1  76 W5        30.17F WCI  -2
ANDOVER*         N/A      5   1  83 CALM      30.19S
MORRISTOWN     CLEAR     19   5  53 CALM      30.22S
NEWARK         CLEAR     19   6  57 W8        30.22F WCI   9
TETERBORO      CLEAR     19   4  51 NW10      30.21F WCI   7
CALDWELL       CLEAR     16   5  62 CALM      30.21F
SOMERVILLE     PTCLDY    14   5  67 CALM      30.21S
ALLAIRE*       CLEAR     19   3  49 W5        30.21S WCI  13
TOMS RIVER*    CLEAR     16   9  73 CALM      30.23S

$$
PAZ043-044-047-054-055-060>062-066>071-010500-
EASTERN PENNSYLVANIA

CITY           SKY/WX    TMP DP  RH WIND       PRES   REMARKS
PHILADELPHIA   CLEAR     22   8  55 W9        30.26S WCI  12
NORTH PHILA    CLEAR     24   6  46 W7        30.25S WCI  16
BLUE BELL      CLEAR     23  10  58 CALM      30.22S
DOYLESTOWN     CLEAR     17   7  64 SW3       30.21R
QUAKERTOWN*    CLEAR     19   7  58 W3        30.21R
POTTSTOWN      CLEAR     17   6  62 CALM      30.23S
LANCASTER      CLEAR     19   5  54 CALM      30.23S
COATESVILLE    CLEAR     23   9  54 W5        30.22R WCI  17
READING        CLEAR     20   6  55 CALM      30.22S
ALLENTOWN      CLEAR     16   5  62 SW3       30.20S
MOUNT POCONO   PTCLDY    10   2  69 NW7       30.06F WCI  -1
HAZLETON       PTCLDY    19   9  63 W13G18    30.13S WCI   7
WILKES BARRE   PTCLDY     9   1  70 MISG      30.16S

$$
DEZALL-MDZ008-012-015-019-020-010500-
DELAWARE AND EASTERN MARYLAND

CITY           SKY/WX    TMP DP  RH WIND       PRES   REMARKS
WILMINGTON     CLEAR     22   7  52 SW3       30.27S
DOVER          CLEAR     21  13  71 SW5       30.27S WCI  15
GEORGETOWN     CLEAR     20  11  68 CALM      30.28F
EASTON         FAIR      23  17  78 CALM      30.31S
PATUXENT       CLEAR     21  10  62 CALM      30.28S
OCEAN CITY     CLEAR     19  13  77 NW3       30.29S
WALLOPS ISLAND CLEAR     20  11  68 CALM      30.30S
CAMBRIDGE      CLEAR     23  18  80 CALM      30.28S
SALISBURY      CLEAR     20  12  71 CALM      30.28F

$$
PAZ001-021-NYZ056-072-MDZ011-DCZ001-010500-
OTHER NEARBY LOCATIONS

CITY           SKY/WX    TMP DP  RH WIND       PRES   REMARKS
HARRISBURG     CLEAR     11   6  81 CALM      30.24S
STATE COLLEGE  PTCLDY    20  12  69 SW8       30.18S WCI  10
WILLIAMSPORT   PTCLDY    15   6  67 CALM      30.21S
BINGHAMTON     CLOUDY    10   5  80 W9        30.08S WCI  -3
NEW YORK CITY  CLEAR     20   4  50 MISG      30.22F
BALTIMORE      PTCLDY    20  11  68 CALM      30.27R
WASHINGTON DC  PTCLDY    29  14  53 CALM      30.28F

$$



USA.gov is the U.S. government's official web portal to all federal, state and local government web resources and services.